Location: Altenhof
(50.2418°N, 10.8789°E)
Time: 19:09:26
(UTC+00:00)

FENGYUN 3A - Pass Details

Date: 18 February 2020
Orbit: 824 x 836 km, 98.4° (Epoch: 03 April)

Event Time Altitude Azimuth Distance (km) Brightness Sun altitude
Rises 04:30:16 0° 15° (NNE) 3,398 7.1 -18.7°
Reaches altitude 10° 04:32:39 10° 18° (NNE) 2,460 6.4 -18.3°
Maximum altitude 04:38:06 72° 103° (ESE) 880 3.9 -17.4°
Drops below altitude 10° 04:43:31 10° 188° (S) 2,443 6.0 -16.6°
Sets 04:45:53 0° 190° (S) 3,373 6.7 -16.2°
